| time (UTC) | temp C | wind direction | speed KPH | gust KPH | rain 1hr cm | rain 24hr cm | rain mn cm | humidity % | barometer mb |
| 20260507230014 | 10 | 0.0 | 0.0 | 0.00 | 0.00 | 0.00 | 53 | 1008.7 | |
| 20260507224509 | 10 | 0.0 | 0.0 | 0.00 | 0.00 | 0.00 | 54 | 1008.6 | |
| 20260507223009 | 10 | 0.0 | 0.0 | 0.00 | 0.00 | 0.00 | 54 | 1008.5 | |
| 20260507221506 | 10 | 0.0 | 0.0 | 0.00 | 0.00 | 0.00 | 55 | 1008.5 | |
| 20260507220005 | 10 | 0.0 | 0.0 | 0.00 | 0.00 | 0.00 | 54 | 1008.6 | |
| 20260507214504 | 10 | 0.0 | 0.0 | 0.00 | 0.00 | 0.00 | 52 | 1008.7 | |
| 20260507213007 | 10 | 0.0 | 0.0 | 0.00 | 0.00 | 0.00 | 50 | 1008.8 | |
| 20260507211503 | 10 | 0.0 | 0.0 | 0.00 | 0.00 | 0.00 | 55 | 1008.7 | |
| 20260507210003 | 10 | 0.0 | 0.0 | 0.00 | 0.00 | 0.00 | 52 | 1008.8 | |
| 20260507204501 | 10 | 0.0 | 0.0 | 0.00 | 0.03 | 0.00 | 53 | 1008.7 | |
| 20260507203002 | 11 | 0.0 | 0.0 | 0.00 | 0.03 | 0.00 | 48 | 1008.8 | |
| 20260507201601 | 11 | 0.0 | 0.0 | 0.00 | 0.03 | 0.00 | 49 | 1008.7 | |
| 20260507200106 | 11 | 0.0 | 0.0 | 0.00 | 0.03 | 0.00 | 47 | 1008.8 | |
| 20260507194601 | 11 | 0.0 | 0.0 | 0.00 | 0.03 | 0.00 | 49 | 1008.9 | |
| 20260507193057 | 11 | 0.0 | 0.0 | 0.00 | 0.03 | 0.00 | 49 | 1009.1 | |
| 20260507191556 | 11 | 0.0 | 0.0 | 0.00 | 0.03 | 0.00 | 48 | 1009.1 | |
| 20260507190106 | 11 | 0.0 | 0.0 | 0.00 | 0.03 | 0.00 | 50 | 1009.4 | |
| 20260507184552 | 11 | 0.0 | 0.0 | 0.00 | 0.03 | 0.00 | 50 | 1009.2 | |
| 20260507183111 | 10 | 0.0 | 0.0 | 0.00 | 0.03 | 0.00 | 50 | 1009.5 | |
| 20260507181556 | 10 | 0.0 | 0.0 | 0.00 | 0.03 | 0.00 | 53 | 1009.7 | |
| 20260507180052 | 10 | 0.0 | 0.0 | 0.00 | 0.03 | 0.00 | 56 | 1009.9 | |
| 20260507174559 | 10 | 0.0 | 0.0 | 0.00 | 0.05 | 0.00 | 53 | 1010.0 | |
| 20260507173050 | 10 | 0.0 | 0.0 | 0.00 | 0.05 | 0.00 | 56 | 1010.0 | |
| 20260507171547 | 10 | 0.0 | 0.0 | 0.00 | 0.05 | 0.00 | 52 | 1010.3 | |
| 20260507170047 | 11 | 0.0 | 0.0 | 0.00 | 0.05 | 0.00 | 51 | 1010.1 | |
| 20260507164600 | 10 | 0.0 | 0.0 | 0.00 | 0.10 | 0.00 | 56 | 1010.3 | |
| 20260507163039 | 10 | 0.0 | 0.0 | 0.00 | 0.10 | 0.00 | 53 | 1010.6 | |
| 20260507161550 | 10 | 0.0 | 0.0 | 0.00 | 0.10 | 0.00 | 53 | 1010.8 | |
| 20260507160141 | 10 | 0.0 | 0.0 | 0.00 | 0.10 | 0.00 | 55 | 1010.8 | |
| 20260507154533 | 9 | 0.0 | 0.0 | 0.00 | 0.25 | 0.00 | 61 | 1011.0 | |
| 20260507153035 | 8 | 0.0 | 0.0 | 0.00 | 0.25 | 0.00 | 60 | 1011.1 | |
| 20260507151531 | 8 | 0.0 | 0.0 | 0.00 | 0.25 | 0.00 | 57 | 1011.2 | |
| 20260507150032 | 7 | 0.0 | 0.0 | 0.00 | 0.25 | 0.00 | 62 | 1011.5 | |
| 20260507144532 | 7 | 0.0 | 0.0 | 0.00 | 0.25 | 0.00 | 64 | 1011.6 | |
| 20260507143022 | 7 | 0.0 | 0.0 | 0.00 | 0.25 | 0.00 | 65 | 1011.6 | |
| 20260507141518 | 6 | 0.0 | 0.0 | 0.00 | 0.25 | 0.00 | 66 | 1011.7 | |
| 20260507140018 | 6 | 0.0 | 0.0 | 0.00 | 0.25 | 0.00 | 68 | 1011.8 | |
| 20260507134508 | 6 | 0.0 | 0.0 | 0.00 | 0.25 | 0.00 | 73 | 1011.7 | |
| 20260507133008 | 5 | 0.0 | 0.0 | 0.00 | 0.25 | 0.00 | 76 | 1011.8 | |
| 20260507131607 | 5 | 0.0 | 0.0 | 0.00 | 0.25 | 0.00 | 79 | 1011.8 | |
| 20260507130006 | 5 | 0.0 | 0.0 | 0.00 | 0.25 | 0.00 | 77 | 1011.7 | |
| 20260507124509 | 4 | 0.0 | 0.0 | 0.00 | 0.25 | 0.00 | 78 | 1011.8 | |
| 20260507123003 | 3 | 0.0 | 0.0 | 0.00 | 0.25 | 0.00 | 81 | 1011.8 | |
| 20260507121505 | 3 | 0.0 | 0.0 | 0.00 | 0.25 | 0.00 | 79 | 1011.7 | |
| 20260507120100 | 3 | 0.0 | 0.0 | 0.00 | 0.25 | 0.00 | 82 | 1011.7 | |
| 20260507114609 | 3 | 0.0 | 0.0 | 0.00 | 0.25 | 0.00 | 83 | 1011.6 | |
| 20260507113126 | 2 | 0.0 | 0.0 | 0.00 | 0.25 | 0.00 | 85 | 1011.3 | |
| 20260507111558 | 2 | 0.0 | 0.0 | 0.00 | 0.25 | 0.00 | 88 | 1011.4 | |
| 20260507110053 | 2 | 0.0 | 0.0 | 0.00 | 0.25 | 0.00 | 88 | 1011.3 | |
| 20260507104551 | 2 | 0.0 | 0.0 | 0.00 | 0.25 | 0.00 | 89 | 1011.0 | |
| 20260507103054 | -17 | 0.0 | 0.0 | 0.00 | 0.25 | 0.00 | 1010.9 | ||
| 20260507101550 | -17 | 0.0 | 0.0 | 0.00 | 0.25 | 0.00 | 1010.8 | ||
| 20260507100046 | -17 | 0.0 | 0.0 | 0.00 | 0.25 | 0.00 | 1010.8 | ||
| 20260507094542 | -17 | 0.0 | 0.0 | 0.00 | 0.25 | 0.00 | 1010.7 | ||
| 20260507093036 | -17 | 0.0 | 0.0 | 0.00 | 0.25 | 0.00 | 1010.7 | ||
| 20260507091536 | -17 | 0.0 | 0.0 | 0.00 | 0.25 | 0.00 | 1010.7 | ||
| 20260507090028 | -17 | 0.0 | 0.0 | 0.00 | 0.25 | 0.00 | 1010.8 | ||
| 20260507084529 | -17 | 0.0 | 0.0 | 0.00 | 0.25 | 0.00 | 1010.9 | ||
| 20260507083019 | -17 | 0.0 | 0.0 | 0.00 | 0.25 | 0.00 | 1010.9 | ||
| 20260507081527 | 3 | 0.0 | 0.0 | 0.00 | 0.25 | 0.00 | 89 | 1010.7 | |
| 20260507080016 | 3 | 0.0 | 0.0 | 0.00 | 0.25 | 0.00 | 88 | 1010.8 | |
| 20260507074516 | 3 | 0.0 | 0.0 | 0.00 | 0.25 | 0.00 | 89 | 1010.8 | |
| 20260507073013 | 3 | 0.0 | 0.0 | 0.00 | 0.25 | 0.00 | 89 | 1010.8 | |
| 20260507071511 | 4 | 0.0 | 0.0 | 0.00 | 0.25 | 0.00 | 90 | 1011.0 | |
| 20260507070012 | 4 | 0.0 | 0.0 | 0.00 | 0.25 | 0.00 | 90 | 1010.9 | |
| 20260507064506 | 5 | 0.0 | 0.0 | 0.00 | 0.25 | 0.00 | 89 | 1010.8 | |
| 20260507063004 | 5 | 0.0 | 0.0 | 0.00 | 0.25 | 0.00 | 89 | 1010.6 | |
| 20260507061502 | 5 | 0.0 | 0.0 | 0.00 | 0.25 | 0.00 | 91 | 1010.4 | |
| 20260507060200 | 5 | 0.0 | 0.0 | 0.00 | 0.25 | 0.00 | 92 | 1010.2 | |
| 20260507054600 | 6 | 0.0 | 0.0 | 0.00 | 0.25 | 0.00 | 94 | 1010.2 | |
| 20260507053059 | 6 | 0.0 | 0.0 | 0.00 | 0.25 | 0.00 | 95 | 1009.7 | |
| 20260507051557 | 5 | 0.0 | 0.0 | 0.00 | 0.25 | 0.00 | 95 | 1009.9 | |
| 20260507050056 | 5 | 0.0 | 0.0 | 0.00 | 0.25 | 0.00 | 95 | 1010.1 | |
| 20260507044609 | 5 | 0.0 | 0.0 | 0.00 | 0.25 | 0.00 | 95 | 1010.2 | |
| 20260507043104 | 5 | 0.0 | 0.0 | 0.00 | 0.25 | 0.00 | 95 | 1010.3 | |
| 20260507041557 | 5 | 0.0 | 0.0 | 0.00 | 0.25 | 0.00 | 94 | 1010.0 | |
| 20260507040049 | 5 | 0.0 | 0.0 | 0.00 | 0.25 | 0.00 | 94 | 1010.0 | |
| 20260507034552 | 5 | 0.0 | 0.0 | 0.00 | 0.25 | 0.25 | 94 | 1009.7 | |
| 20260507033047 | 5 | 0.0 | 0.0 | 0.00 | 0.25 | 0.25 | 94 | 1009.6 | |
| 20260507031548 | 5 | 0.0 | 0.0 | 0.00 | 0.25 | 0.25 | 94 | 1009.9 | |
| 20260507030047 | 5 | 0.0 | 0.0 | 0.00 | 0.25 | 0.25 | 94 | 1009.6 | |
| 20260507024551 | 5 | 0.0 | 0.0 | 0.00 | 0.25 | 0.25 | 93 | 1010.1 | |
| 20260507023057 | 5 | 0.0 | 0.0 | 0.00 | 0.25 | 0.25 | 94 | 1009.7 | |
| 20260507021543 | 5 | 0.0 | 0.0 | 0.00 | 0.25 | 0.25 | 94 | 1010.4 | |
| 20260507020050 | 5 | 0.0 | 0.0 | 0.00 | 0.25 | 0.25 | 93 | 1010.2 | |
| 20260507014541 | 5 | 0.0 | 0.0 | 0.00 | 0.25 | 0.25 | 93 | 1010.0 | |
| 20260507013040 | 5 | 0.0 | 0.0 | 0.00 | 0.25 | 0.25 | 93 | 1010.0 | |
| 20260507011545 | 5 | 0.0 | 0.0 | 0.00 | 0.25 | 0.25 | 93 | 1010.1 | |
| 20260507010038 | 6 | 0.0 | 0.0 | 0.00 | 0.25 | 0.25 | 93 | 1009.9 | |
| 20260507004536 | 6 | 0.0 | 0.0 | 0.00 | 0.25 | 0.25 | 94 | 1009.9 | |
| 20260507003033 | 6 | 0.0 | 0.0 | 0.00 | 0.25 | 0.25 | 94 | 1009.4 | |
| 20260507001603 | 6 | 0.0 | 0.0 | 0.00 | 0.25 | 0.25 | 93 | 1009.3 | |
| 20260507000040 | 6 | 0.0 | 0.0 | 0.00 | 0.25 | 0.25 | 93 | 1009.2 | |
| 20260506234531 | 6 | 0.0 | 0.0 | 0.00 | 0.25 | 0.25 | 93 | 1009.0 | |
| 20260506233029 | 6 | 0.0 | 0.0 | 0.00 | 0.25 | 0.25 | 93 | 1008.7 | |
| 20260506231529 | 6 | 0.0 | 0.0 | 0.00 | 0.25 | 0.25 | 93 | 1008.8 |